Location: Mitty Observatory
(35.9148°N, 88.8847°W)
Time: 17:20:17
(UTC-06:00)

LightSail 2 - Pass Details

Date: 17 November 2019
Orbit: 696 x 730 km, 24.0° (Epoch: 08 December)

Event Time Altitude Azimuth Distance (km) Brightness Sun altitude
Exits shadow 05:18:58 - 231° (SW) 2,323 7.4 -15.2°
Reaches altitude 10° 05:19:34 10° 225° (SW) 2,205 7.4 -15.1°
Maximum altitude 05:22:07 14° 195° (SSW) 1,964 7.4 -14.6°
Drops below altitude 10° 05:24:41 10° 166° (SSE) 2,209 8.1 -14.1°
Sets 05:28:20 0° 141° (SE) 3,131 9.4 -13.4°
